Ketchikan, AK

2:52 AM AKST on January 21, 2019 (GMT -0900)
Ketchikan International

Weather History for PAKT - November, 2018

Change the Weather History Date:

Tuesday, November 20, 2018

  Actual Average Record
Temperature  
Mean Temperature 46 °F -  
Max Temperature 48 °F 43 °F 56 °F (1949)
Min Temperature 44 °F 32 °F 10 °F (1996)
Degree Days  
Heating Degree Days 19    
Moisture  
Dew Point 45 °F    
Average Humidity 91    
Maximum Humidity 100    
Minimum Humidity 86    
Precipitation  
Precipitation 1.88 in - - ()
Sea Level Pressure  
Sea Level Pressure 29.63 in    
Wind  
Wind Speed 11 mph (SSE)    
Max Wind Speed 20 mph    
Max Gust Speed 26 mph    
Visibility 6 miles    
Events Rain    
Averages and records for this station are not official NWS values.
T = Trace of Precipitation, MM = Missing Value Source: NWS Daily Summary

Daily Weather History Graph

Daily Weather History Graph

Search for Another Location

Airport or City:

Astronomy

Nov. 20, 2018 Rise Set
Actual Time 7:30 AM AKST 3:33 PM AKST
Civil Twilight 6:48 AM AKST 4:16 PM AKST
Nautical Twilight 6:02 AM AKST 5:01 PM AKST
Astronomical Twilight 5:19 AM AKST 5:45 PM AKST
Moon 3:08 PM AKST (11/20) 3:50 AM AKST (11/20)
Length of Visible Light 9h 27m
Length of Day
8h 03m
Waxing Gibbous, 93% of the Moon is Illuminated
Nov 20
Waxing Gibbous
Nov 22
Full
Nov 29
Last Quarter
Dec 6
New
Dec 15
First Quarter

Hourly Weather History & Observations

Time (AKST) Temp. Windchill Dew Point Humidity Pressure Visibility Wind Dir Wind Speed Gust Speed Precip Events Conditions
12:38 AM 48.0 °F - 45.0 °F 89% 29.74 in 2.0 mi SE 12.7 mph 20.7 mph 0.05 in Rain Rain
12:51 AM 48.2 °F - 44.6 °F 87% 29.74 in 3.0 mi SSE 15.0 mph - 0.07 in Rain Rain
12:53 AM 48.0 °F - 44.1 °F 86% 29.74 in 3.0 mi SSE 12.7 mph - 0.08 in Rain Rain
1:53 AM 48.0 °F - 45.0 °F 89% 29.73 in 7.0 mi SSE 12.7 mph - 0.08 in Rain Light Rain
2:53 AM 48.0 °F - 45.0 °F 89% 29.71 in 6.0 mi SE 15.0 mph 21.9 mph 0.12 in Rain Rain
3:13 AM 48.0 °F - 46.0 °F 93% 29.69 in 4.0 mi SSE 13.8 mph 21.9 mph 0.07 in Rain Rain
3:53 AM 48.0 °F - 45.0 °F 89% 29.69 in 4.0 mi SSE 11.5 mph - 0.11 in Rain Light Rain
5:00 AM 48.0 °F - 45.0 °F 89% 29.67 in 2.0 mi SE 13.8 mph - 0.01 in Rain Rain
5:09 AM 48.0 °F - 45.0 °F 89% 29.66 in 3.0 mi SSE 17.3 mph - 0.03 in Rain Rain
5:53 AM 48.0 °F - 45.0 °F 89% 29.65 in 3.0 mi SE 16.1 mph - 0.19 in Rain Rain
6:07 AM 48.0 °F - 45.0 °F 89% 29.65 in 3.0 mi SE 16.1 mph - 0.06 in Rain Heavy Rain
6:53 AM 48.0 °F - 46.0 °F 93% 29.63 in 3.0 mi SSE 17.3 mph - 0.30 in Rain Heavy Rain
7:51 AM 48.2 °F - 44.6 °F 87% 29.61 in 3.0 mi SE 19.6 mph 26.5 mph 0.25 in Rain Heavy Rain
7:53 AM 48.9 °F - 45.0 °F 86% 29.62 in 3.0 mi SE 19.6 mph 26.5 mph 0.26 in Rain Heavy Rain
8:53 AM 48.9 °F - 46.0 °F 90% 29.60 in 3.0 mi SE 15.0 mph 23.0 mph 0.31 in Rain Heavy Rain
9:53 AM 48.9 °F - 46.0 °F 90% 29.60 in 4.0 mi SE 13.8 mph 21.9 mph 0.30 in Rain Rain
10:51 AM 48.2 °F - 46.4 °F 93% 29.58 in 5.0 mi SSE 8.1 mph - 0.12 in Rain Light Rain
10:53 AM 48.9 °F - 46.0 °F 90% 29.58 in 5.0 mi SSE 9.2 mph - 0.13 in Rain Light Rain
11:51 AM 48.2 °F - 46.4 °F 93% 29.56 in 4.0 mi SSE 12.7 mph 21.9 mph N/A Rain Rain
11:53 AM 48.2 °F - 46.4 °F 93% 29.56 in 4.0 mi SSE 12.7 mph 21.9 mph N/A Rain Rain
12:53 PM 48.2 °F - 46.4 °F 93% 29.57 in 10.0 mi SE 12.7 mph - N/A Rain Light Rain
1:53 PM 48.2 °F - 46.4 °F 93% 29.57 in 10.0 mi SE 9.2 mph - N/A Rain Light Rain
2:53 PM 48.2 °F - 44.6 °F 87% 29.58 in 10.0 mi NNW 3.5 mph - N/A   Overcast
3:51 PM 46.4 °F - 44.6 °F 93% 29.59 in 10.0 mi Calm Calm - N/A   Overcast
3:53 PM 46.9 °F - 45.0 °F 93% 29.59 in 10.0 mi Calm Calm - N/A   Overcast
4:53 PM 46.9 °F - 45.0 °F 93% 29.60 in 10.0 mi Calm Calm - N/A   Overcast
5:51 PM 46.4 °F - 44.6 °F 93% 29.61 in 10.0 mi Calm Calm - N/A   Mostly Cloudy
5:53 PM 46.0 °F - 44.1 °F 93% 29.61 in 10.0 mi Calm Calm - N/A   Mostly Cloudy
6:51 PM 44.6 °F 43.1 °F 44.6 °F 100% 29.61 in 10.0 mi South 3.5 mph - N/A   Overcast
6:53 PM 46.0 °F 44.8 °F 44.1 °F 93% 29.61 in 10.0 mi South 3.5 mph - N/A   Overcast
7:51 PM 46.4 °F - 44.6 °F 93% 29.60 in 10.0 mi Calm Calm - N/A   Overcast
7:53 PM 46.0 °F - 44.1 °F 93% 29.61 in 10.0 mi Calm Calm - N/A   Overcast
8:53 PM 46.0 °F 44.8 °F 44.1 °F 93% 29.61 in 10.0 mi SSE 3.5 mph - N/A   Overcast
9:15 PM 46.0 °F 44.8 °F 44.1 °F 93% 29.60 in 10.0 mi SE 3.5 mph - N/A   Overcast
9:53 PM 46.0 °F - 44.1 °F 93% 29.60 in 10.0 mi Calm Calm - N/A   Overcast
10:53 PM 46.0 °F 44.8 °F 44.1 °F 93% 29.60 in 10.0 mi South 3.5 mph - N/A   Overcast
11:59 PM 46.0 °F 44.8 °F 44.1 °F 93% 29.59 in 4.0 mi SSE 3.5 mph - N/A   Overcast